Location: Bannatyne
(13.0833°N, 59.5333°W)
Time: 10:23:55
(UTC+00:00)

Cosmos 1703 - Pass Details

Date: 18 October 2019
Orbit: 524 x 541 km, 82.5° (Epoch: 11 November)

Event Time Altitude Azimuth Distance (km) Brightness Sun altitude
Rises 22:01:00 0° 17° (NNE) 2,658 6.6 -6.5°
Reaches altitude 10° 22:03:33 10° 34° (NE) 1,766 5.5 -7.1°
Maximum altitude 22:06:29 21° 83° (E) 1,233 4.5 -7.8°
Drops below altitude 10° 22:09:25 10° 133° (SE) 1,759 5.5 -8.5°
Sets 22:11:57 0° 150° (SSE) 2,645 6.6 -9.1°
